User: anonymous   Login
Location: Csohesd
(46.2500°N, 22.6167°E)
Time: 07:13:12
(UTC+00:00)
Language:

CZ-4 R/B - Orbit

View from above orbital plane
View from above orbital plane
View from above satellite
View from above satellite

Ground track
Ground track

The orbit data is extracted from the following two-line orbital elements,

1 28414U 04035B   22024.76231849  .00000431  00000-0  45265-4 0  9995
2 28414  97.7268  47.5140 0006789 154.8153 205.3351 14.94457000946493
Epoch (UTC): 24 January 2022 18:17:44
Eccentricity: 0.0006789
inclination: 97.7268°
perigee height: 579 km
apogee height: 589 km
right ascension of ascending node: 47.5140°
argument of perigee: 154.8153°
revolutions per day: 14.94457000
mean anomaly at epoch: 205.3351°
orbit number at epoch: 94649

The dashed part of the orbit path shows where the satellite is in the earth's shadow,  

DLR